User: anonymous   Login
Location: ??????????
(48.5701°N, 37.7703°E)
Time: 14:26:52
(UTC+00:00)
Language:

H-2A R/B - Orbit

View from above orbital plane
View from above orbital plane
View from above satellite
View from above satellite

Ground track
Ground track

The orbit data is extracted from the following two-line orbital elements,

1 38341U 12025E   21127.06712170  .00000119  00000-0  21629-4 0  9991
2 38341  98.5276 309.7237 0054099 272.5435  86.9585 14.84213463485446
Epoch (UTC): 07 May 2021 01:36:39
Eccentricity: 0.0054099
inclination: 98.5276°
perigee height: 578 km
apogee height: 654 km
right ascension of ascending node: 309.7237°
argument of perigee: 272.5435°
revolutions per day: 14.84213463
mean anomaly at epoch: 86.9585°
orbit number at epoch: 48544

The dashed part of the orbit path shows where the satellite is in the earth's shadow,  

DLR